Weather History for Grand Rapids, MN

Change the Weather History Date:

Monday, September 23, 2013

  Actual Average Record
Temperature  
Mean Temperature 58 °F -  
Max Temperature 69 °F 60 °F 87 °F (1936)
Min Temperature 48 °F 37 °F 24 °F (1971)
Degree Days  
Heating Degree Days 6    
Growing Degree Days 8 (Base 50)    
Moisture  
Dew Point 47 °F    
Average Humidity 68    
Maximum Humidity 87    
Minimum Humidity 43    
Precipitation  
Precipitation 0.00 in - - ()
Sea Level Pressure  
Sea Level Pressure 29.88 in    
Wind  
Wind Speed 11 mph (SSE)    
Max Wind Speed 23 mph    
Max Gust Speed 33 mph    
Visibility 10 miles    
Events      
Averages and records for this station are not official NWS values.
T = Trace of Precipitation, MM = Missing Value Source: NWS Daily Summary

Daily Weather History Graph

Daily Weather History Graph

Search for Another Location

Airport:

Trip Planner

Search our weather history database for the weather conditions in past years. The results will help you decide how hot, cold, wet, or windy it might be!

Date:

Astronomy

Sep. 23, 2013 Rise Set
Actual Time 7:02 AM CDT 7:09 PM CDT
Civil Twilight 6:32 AM CDT 7:39 PM CDT
Nautical Twilight 5:56 AM CDT 8:15 PM CDT
Astronomical Twilight 5:19 AM CDT 8:52 PM CDT
Moon 9:22 PM CDT (9/23) 11:40 AM CDT (9/23)
Length of Visible Light 13h 07m
Length of Day
12h 06m
Waning Gibbous, 81% of the Moon is Illuminated
Sep 23
Waning Gibbous
Sep 26
Last Quarter
Oct 4
New
Oct 11
First Quarter
Oct 18
Full

Hourly Weather History & Observations

Time (CDT) Temp. Dew Point Humidity Pressure Visibility Wind Dir Wind Speed Gust Speed Precip Events Conditions
12:15 AM 48.2 °F 44.6 °F 87% 29.86 in 10.0 mi SE 8.1 mph - N/A   Clear
12:35 AM 48.2 °F 44.6 °F 87% 29.86 in 10.0 mi SE 9.2 mph - N/A   Clear
12:55 AM 48.2 °F 44.6 °F 87% 29.86 in 10.0 mi SE 8.1 mph - N/A   Clear
1:15 AM 48.2 °F 44.6 °F 87% 29.86 in 10.0 mi ESE 6.9 mph - N/A   Clear
1:35 AM 48.2 °F 44.6 °F 87% 29.87 in 10.0 mi SE 6.9 mph - N/A   Clear
1:55 AM 48.2 °F 44.6 °F 87% 29.87 in 10.0 mi SE 6.9 mph - N/A   Clear
2:15 AM 48.2 °F 44.6 °F 87% 29.87 in 10.0 mi SE 8.1 mph - N/A   Clear
2:35 AM 48.2 °F 44.6 °F 87% 29.87 in 10.0 mi SE 8.1 mph - N/A   Clear
2:55 AM 50.0 °F 46.4 °F 87% 29.87 in 10.0 mi SE 10.4 mph 16.1 mph N/A   Clear
3:15 AM 51.8 °F 46.4 °F 82% 29.87 in 10.0 mi SE 11.5 mph - N/A   Clear
3:35 AM 51.8 °F 46.4 °F 82% 29.87 in 10.0 mi SSE 12.7 mph 16.1 mph N/A   Clear
3:55 AM 51.8 °F 46.4 °F 82% 29.87 in 10.0 mi SSE 11.5 mph - N/A   Clear
4:15 AM 51.8 °F 46.4 °F 82% 29.87 in 10.0 mi SE 9.2 mph - N/A   Clear
4:35 AM 51.8 °F 46.4 °F 82% 29.87 in 10.0 mi SSE 11.5 mph 16.1 mph N/A   Clear
4:55 AM 51.8 °F 46.4 °F 82% 29.87 in 10.0 mi SE 10.4 mph - N/A   Clear
5:15 AM 51.8 °F 46.4 °F 82% 29.87 in 10.0 mi SE 9.2 mph - N/A   Clear
5:35 AM 51.8 °F 46.4 °F 82% 29.87 in 10.0 mi SE 10.4 mph - N/A   Clear
5:55 AM 51.8 °F 46.4 °F 82% 29.88 in 10.0 mi SSE 9.2 mph - N/A   Clear
6:15 AM 50.0 °F 46.4 °F 87% 29.88 in 10.0 mi SSE 10.4 mph - N/A   Clear
6:35 AM 50.0 °F 46.4 °F 87% 29.89 in 10.0 mi SE 10.4 mph - N/A   Clear
6:55 AM 50.0 °F 46.4 °F 87% 29.89 in 10.0 mi SSE 9.2 mph - N/A   Clear
7:15 AM 50.0 °F 46.4 °F 87% 29.89 in 10.0 mi SE 9.2 mph - N/A   Clear
7:35 AM 50.0 °F 46.4 °F 87% 29.89 in 10.0 mi SE 10.4 mph - N/A   Clear
7:55 AM 50.0 °F 46.4 °F 87% 29.89 in 10.0 mi SSE 10.4 mph - N/A   Clear
8:15 AM 51.8 °F 46.4 °F 82% 29.89 in 10.0 mi SSE 12.7 mph - N/A   Clear
8:35 AM 51.8 °F 46.4 °F 82% 29.89 in 10.0 mi SSE 11.5 mph - N/A   Clear
8:55 AM 53.6 °F 46.4 °F 77% 29.89 in 10.0 mi SSE 13.8 mph 18.4 mph N/A   Clear
9:15 AM 55.4 °F 48.2 °F 77% 29.89 in 10.0 mi SSE 15.0 mph 19.6 mph N/A   Clear
9:35 AM 57.2 °F 48.2 °F 72% 29.89 in 10.0 mi SSE 15.0 mph 19.6 mph N/A   Clear
9:55 AM 57.2 °F 48.2 °F 72% 29.89 in 10.0 mi SSE 16.1 mph 21.9 mph N/A   Clear
10:15 AM 59.0 °F 48.2 °F 67% 29.89 in 10.0 mi SSE 13.8 mph 23.0 mph N/A   Clear
10:35 AM 60.8 °F 48.2 °F 63% 29.89 in 10.0 mi SSE 17.3 mph 24.2 mph N/A   Clear
10:55 AM 62.6 °F 48.2 °F 59% 29.89 in 10.0 mi SSE 16.1 mph 24.2 mph N/A   Clear
11:15 AM 62.6 °F 50.0 °F 63% 29.90 in 10.0 mi SSE 12.7 mph 24.2 mph N/A   Clear
11:35 AM 64.4 °F 50.0 °F 59% 29.90 in 10.0 mi SSE 17.3 mph 25.3 mph N/A   Clear
11:55 AM 64.4 °F 48.2 °F 56% 29.90 in 10.0 mi South 20.7 mph 26.5 mph N/A   Clear
12:15 PM 66.2 °F 48.2 °F 52% 29.90 in 10.0 mi South 18.4 mph 31.1 mph N/A   Clear
12:35 PM 66.2 °F 48.2 °F 52% 29.90 in 10.0 mi SSE 20.7 mph 26.5 mph N/A   Clear
12:55 PM 66.2 °F 48.2 °F 52% 29.89 in 10.0 mi South 23.0 mph 31.1 mph N/A   Clear
1:15 PM 66.2 °F 48.2 °F 52% 29.88 in 10.0 mi SSE 21.9 mph 29.9 mph N/A   Clear
1:35 PM 68.0 °F 46.4 °F 46% 29.88 in 10.0 mi SSE 23.0 mph 32.2 mph N/A   Clear
1:55 PM 69.8 °F 46.4 °F 43% 29.88 in 10.0 mi SSE 21.9 mph 31.1 mph N/A   Clear
2:15 PM 69.8 °F 46.4 °F 43% 29.87 in 10.0 mi South 23.0 mph 29.9 mph N/A   Clear
2:35 PM 69.8 °F 46.4 °F 43% 29.86 in 10.0 mi South 18.4 mph 31.1 mph N/A   Clear
2:55 PM 69.8 °F 46.4 °F 43% 29.86 in 10.0 mi SSE 23.0 mph 32.2 mph N/A   Clear
3:15 PM 69.8 °F 48.2 °F 46% 29.86 in 10.0 mi SSE 18.4 mph 26.5 mph N/A   Clear
3:35 PM 69.8 °F 46.4 °F 43% 29.85 in 10.0 mi SSE 19.6 mph 29.9 mph N/A   Clear
3:55 PM 69.8 °F 48.2 °F 46% 29.85 in 10.0 mi SSE 13.8 mph 19.6 mph N/A   Clear
4:15 PM 69.8 °F 48.2 °F 46% 29.85 in 10.0 mi SSE 16.1 mph 23.0 mph N/A   Clear
4:35 PM 69.8 °F 48.2 °F 46% 29.85 in 10.0 mi SSE 16.1 mph 33.4 mph N/A   Clear
4:55 PM 69.8 °F 48.2 °F 46% 29.86 in 10.0 mi SSE 16.1 mph 24.2 mph N/A   Clear
5:15 PM 68.0 °F 48.2 °F 49% 29.86 in 10.0 mi SSE 16.1 mph 28.8 mph N/A   Clear
5:35 PM 66.2 °F 48.2 °F 52% 29.86 in 10.0 mi SSE 13.8 mph 23.0 mph N/A   Clear
5:55 PM 66.2 °F 48.2 °F 52% 29.87 in 10.0 mi SSE 11.5 mph 20.7 mph N/A   Clear
6:15 PM 66.2 °F 48.2 °F 52% 29.87 in 10.0 mi SSE 12.7 mph 16.1 mph N/A   Clear
6:35 PM 64.4 °F 48.2 °F 56% 29.88 in 10.0 mi SSE 9.2 mph 16.1 mph N/A   Clear
6:55 PM 64.4 °F 48.2 °F 56% 29.88 in 10.0 mi SSE 10.4 mph - N/A   Clear
7:15 PM 62.6 °F 48.2 °F 59% 29.88 in 10.0 mi SSE 9.2 mph 16.1 mph N/A   Clear
7:35 PM 62.6 °F 48.2 °F 59% 29.88 in 10.0 mi SE 8.1 mph - N/A   Clear
7:55 PM 60.8 °F 48.2 °F 63% 29.89 in 10.0 mi SE 5.8 mph - N/A   Clear
8:15 PM 60.8 °F 48.2 °F 63% 29.90 in 10.0 mi SE 6.9 mph - N/A   Clear
8:35 PM 59.0 °F 48.2 °F 67% 29.90 in 10.0 mi SE 8.1 mph - N/A   Clear
8:55 PM 57.2 °F 48.2 °F 72% 29.90 in 10.0 mi SE 9.2 mph - N/A   Clear
9:15 PM 57.2 °F 48.2 °F 72% 29.90 in 10.0 mi SE 10.4 mph - N/A   Clear
9:35 PM 57.2 °F 48.2 °F 72% 29.91 in 10.0 mi SE 10.4 mph - N/A   Clear
9:55 PM 57.2 °F 48.2 °F 72% 29.91 in 10.0 mi SE 10.4 mph 16.1 mph N/A   Clear
10:15 PM 57.2 °F 48.2 °F 72% 29.92 in 10.0 mi SSE 10.4 mph - N/A   Clear
10:35 PM 57.2 °F 48.2 °F 72% 29.92 in 10.0 mi SSE 8.1 mph - N/A   Clear
10:55 PM 55.4 °F 46.4 °F 72% 29.92 in 10.0 mi SSE 10.4 mph - N/A   Clear
11:15 PM 55.4 °F 46.4 °F 72% 29.92 in 10.0 mi SSE 8.1 mph - N/A   Clear
11:35 PM 55.4 °F 48.2 °F 77% 29.92 in 10.0 mi SE 9.2 mph - N/A   Clear
11:55 PM 55.4 °F 48.2 °F 77% 29.92 in 10.0 mi SSE 9.2 mph - N/A   Clear